owner,sensor,date,latitude,longitude,sea_surface_height_above_sea_level,qcFlag 
COMPS,ioos:station:USF.COMPS:ARP:1,2011-10-01T00:00:00Z,28.4330,-82.6670,0.056,1111122 
COMPS,ioos:station:USF.COMPS:ARP:1,2011-10-01T00:06:00Z,28.4330,-82.6670,0.044,1111122 
COMPS,ioos:station:USF.COMPS:ARP:1,2011-10-01T00:12:00Z,28.4330,-82.6670,0.032,1111122 
COMPS,ioos:station:USF.COMPS:ARP:1,2011-10-01T00:18:00Z,28.4330,-82.6670,0.019,1111122 
COMPS,ioos:station:USF.COMPS:ARP:1,2011-10-01T00:24:00Z,28.4330,-82.6670,0.005,1111122 
COMPS,ioos:station:USF.COMPS:ARP:1,2011-10-01T00:30:00Z,28.4330,-82.6670,-0.008,1111122 
COMPS,ioos:station:USF.COMPS:ARP:1,2011-10-01T00:36:00Z,28.4330,-82.6670,-0.02,1111122 
COMPS,ioos:station:USF.COMPS:ARP:1,2011-10-01T00:42:00Z,28.4330,-82.6670,-0.032,1111122 
COMPS,ioos:station:USF.COMPS:ARP:1,2011-10-01T00:48:00Z,28.4330,-82.6670,-0.044,1111122 
COMPS,ioos:station:USF.COMPS:ARP:1,2011-10-01T00:54:00Z,28.4330,-82.6670,-0.055,1111122 
COMPS,ioos:station:USF.COMPS:ARP:1,2011-10-01T01:00:00Z,28.4330,-82.6670,-0.067,1111122 
COMPS,ioos:station:USF.COMPS:ARP:1,2011-10-01T01:06:00Z,28.4330,-82.6670,-0.078,1111122 
COMPS,ioos:station:USF.COMPS:ARP:1,2011-10-01T01:12:00Z,28.4330,-82.6670,-0.088,1111122 
COMPS,ioos:station:USF.COMPS:ARP:1,2011-10-01T01:18:00Z,28.4330,-82.6670,-0.1,1111122 
COMPS,ioos:station:USF.COMPS:ARP:1,2011-10-01T01:24:00Z,28.4330,-82.6670,-0.109,1111122 
COMPS,ioos:station:USF.COMPS:ARP:1,2011-10-01T01:30:00Z,28.4330,-82.6670,-0.12,1111122 
COMPS,ioos:station:USF.COMPS:ARP:1,2011-10-01T01:36:00Z,28.4330,-82.6670,-0.128,1111122 
COMPS,ioos:station:USF.COMPS:ARP:1,2011-10-01T01:42:00Z,28.4330,-82.6670,-0.137,1111122 
COMPS,ioos:station:USF.COMPS:ARP:1,2011-10-01T01:48:00Z,28.4330,-82.6670,-0.145,1111122 
COMPS,ioos:station:USF.COMPS:ARP:1,2011-10-01T01:54:00Z,28.4330,-82.6670,-0.15,1111122 
COMPS,ioos:station:USF.COMPS:ARP:1,2011-10-01T02:00:00Z,28.4330,-82.6670,-0.158,1111122 
COMPS,ioos:station:USF.COMPS:ARP:1,2011-10-01T02:06:00Z,28.4330,-82.6670,-0.164,1111122 
COMPS,ioos:station:USF.COMPS:ARP:1,2011-10-01T02:12:00Z,28.4330,-82.6670,-0.166,1111122 
COMPS,ioos:station:USF.COMPS:ARP:1,2011-10-01T02:18:00Z,28.4330,-82.6670,-0.172,1111122 
COMPS,ioos:station:USF.COMPS:ARP:1,2011-10-01T02:24:00Z,28.4330,-82.6670,-0.174,1111122 
COMPS,ioos:station:USF.COMPS:ARP:1,2011-10-01T02:30:00Z,28.4330,-82.6670,-0.171,1111122 
COMPS,ioos:station:USF.COMPS:ARP:1,2011-10-01T02:36:00Z,28.4330,-82.6670,-0.169,1111122 
COMPS,ioos:station:USF.COMPS:ARP:1,2011-10-01T02:42:00Z,28.4330,-82.6670,-0.16,1111122 
COMPS,ioos:station:USF.COMPS:ARP:1,2011-10-01T02:48:00Z,28.4330,-82.6670,-0.15,1111122 
COMPS,ioos:station:USF.COMPS:ARP:1,2011-10-01T02:54:00Z,28.4330,-82.6670,-0.136,1111122 
COMPS,ioos:station:USF.COMPS:ARP:1,2011-10-01T03:00:00Z,28.4330,-82.6670,-0.122,1111122 
COMPS,ioos:station:USF.COMPS:ARP:1,2011-10-01T03:06:00Z,28.4330,-82.6670,-0.105,1111122 
COMPS,ioos:station:USF.COMPS:ARP:1,2011-10-01T03:12:00Z,28.4330,-82.6670,-0.089,1111122 
COMPS,ioos:station:USF.COMPS:ARP:1,2011-10-01T03:18:00Z,28.4330,-82.6670,-0.071,1111122 
COMPS,ioos:station:USF.COMPS:ARP:1,2011-10-01T03:24:00Z,28.4330,-82.6670,-0.055,1111122 
COMPS,ioos:station:USF.COMPS:ARP:1,2011-10-01T03:30:00Z,28.4330,-82.6670,-0.038,1111122 
COMPS,ioos:station:USF.COMPS:ARP:1,2011-10-01T03:36:00Z,28.4330,-82.6670,-0.021,1111122 
COMPS,ioos:station:USF.COMPS:ARP:1,2011-10-01T03:42:00Z,28.4330,-82.6670,-0.004,1111122 
COMPS,ioos:station:USF.COMPS:ARP:1,2011-10-01T03:48:00Z,28.4330,-82.6670,0.013,1111122 
COMPS,ioos:station:USF.COMPS:ARP:1,2011-10-01T03:54:00Z,28.4330,-82.6670,0.031,1111122 
COMPS,ioos:station:USF.COMPS:ARP:1,2011-10-01T04:00:00Z,28.4330,-82.6670,0.049,1111122 
COMPS,ioos:station:USF.COMPS:ARP:1,2011-10-01T04:06:00Z,28.4330,-82.6670,0.067,1111122 
COMPS,ioos:station:USF.COMPS:ARP:1,2011-10-01T04:12:00Z,28.4330,-82.6670,0.086,1111122 
COMPS,ioos:station:USF.COMPS:ARP:1,2011-10-01T04:18:00Z,28.4330,-82.6670,0.105,1111122 
COMPS,ioos:station:USF.COMPS:ARP:1,2011-10-01T04:24:00Z,28.4330,-82.6670,0.125,1111122 
COMPS,ioos:station:USF.COMPS:ARP:1,2011-10-01T04:30:00Z,28.4330,-82.6670,0.145,1111122 
COMPS,ioos:station:USF.COMPS:ARP:1,2011-10-01T04:36:00Z,28.4330,-82.6670,0.164,1111122 
COMPS,ioos:station:USF.COMPS:ARP:1,2011-10-01T04:42:00Z,28.4330,-82.6670,0.184,1111122 
COMPS,ioos:station:USF.COMPS:ARP:1,2011-10-01T04:48:00Z,28.4330,-82.6670,0.204,1111122 
COMPS,ioos:station:USF.COMPS:ARP:1,2011-10-01T04:54:00Z,28.4330,-82.6670,0.225,1111122 
COMPS,ioos:station:USF.COMPS:ARP:1,2011-10-01T05:00:00Z,28.4330,-82.6670,0.245,1111122 
COMPS,ioos:station:USF.COMPS:ARP:1,2011-10-01T05:06:00Z,28.4330,-82.6670,0.266,1111122 
COMPS,ioos:station:USF.COMPS:ARP:1,2011-10-01T05:12:00Z,28.4330,-82.6670,0.287,1111122 
COMPS,ioos:station:USF.COMPS:ARP:1,2011-10-01T05:18:00Z,28.4330,-82.6670,0.308,1111122 
COMPS,ioos:station:USF.COMPS:ARP:1,2011-10-01T05:24:00Z,28.4330,-82.6670,0.328,1111122 
COMPS,ioos:station:USF.COMPS:ARP:1,2011-10-01T05:30:00Z,28.4330,-82.6670,0.349,1111122 
COMPS,ioos:station:USF.COMPS:ARP:1,2011-10-01T05:36:00Z,28.4330,-82.6670,0.37,1111122 
COMPS,ioos:station:USF.COMPS:ARP:1,2011-10-01T05:42:00Z,28.4330,-82.6670,0.39,1111122 
COMPS,ioos:station:USF.COMPS:ARP:1,2011-10-01T05:48:00Z,28.4330,-82.6670,0.41,1111122 
COMPS,ioos:station:USF.COMPS:ARP:1,2011-10-01T05:54:00Z,28.4330,-82.6670,0.43,1111122 
COMPS,ioos:station:USF.COMPS:ARP:1,2011-10-01T06:00:00Z,28.4330,-82.6670,0.45,1111122 
COMPS,ioos:station:USF.COMPS:ARP:1,2011-10-01T06:06:00Z,28.4330,-82.6670,0.468,1111122 
COMPS,ioos:station:USF.COMPS:ARP:1,2011-10-01T06:12:00Z,28.4330,-82.6670,0.488,1111122 
COMPS,ioos:station:USF.COMPS:ARP:1,2011-10-01T06:18:00Z,28.4330,-82.6670,0.505,1111122 
COMPS,ioos:station:USF.COMPS:ARP:1,2011-10-01T06:24:00Z,28.4330,-82.6670,0.523,1111122 
COMPS,ioos:station:USF.COMPS:ARP:1,2011-10-01T06:30:00Z,28.4330,-82.6670,0.54,1111122 
COMPS,ioos:station:USF.COMPS:ARP:1,2011-10-01T06:36:00Z,28.4330,-82.6670,0.557,1111122 
COMPS,ioos:station:USF.COMPS:ARP:1,2011-10-01T06:42:00Z,28.4330,-82.6670,0.575,1111122 
COMPS,ioos:station:USF.COMPS:ARP:1,2011-10-01T06:48:00Z,28.4330,-82.6670,0.6,1111122 
COMPS,ioos:station:USF.COMPS:ARP:1,2011-10-01T06:54:00Z,28.4330,-82.6670,0.62,1111122 
COMPS,ioos:station:USF.COMPS:ARP:1,2011-10-01T07:00:00Z,28.4330,-82.6670,0.639,1111122 
COMPS,ioos:station:USF.COMPS:ARP:1,2011-10-01T07:06:00Z,28.4330,-82.6670,0.659,1111122 
COMPS,ioos:station:USF.COMPS:ARP:1,2011-10-01T07:12:00Z,28.4330,-82.6670,0.68,1111122 
COMPS,ioos:station:USF.COMPS:ARP:1,2011-10-01T07:18:00Z,28.4330,-82.6670,0.692,1111122 
COMPS,ioos:station:USF.COMPS:ARP:1,2011-10-01T07:24:00Z,28.4330,-82.6670,0.702,1111122 
COMPS,ioos:station:USF.COMPS:ARP:1,2011-10-01T07:30:00Z,28.4330,-82.6670,0.705,1111122 
COMPS,ioos:station:USF.COMPS:ARP:1,2011-10-01T07:36:00Z,28.4330,-82.6670,0.692,1111122 
COMPS,ioos:station:USF.COMPS:ARP:1,2011-10-01T07:42:00Z,28.4330,-82.6670,0.676,1111122 
COMPS,ioos:station:USF.COMPS:ARP:1,2011-10-01T07:48:00Z,28.4330,-82.6670,0.65,1111122 
COMPS,ioos:station:USF.COMPS:ARP:1,2011-10-01T07:54:00Z,28.4330,-82.6670,0.627,1111122 
COMPS,ioos:station:USF.COMPS:ARP:1,2011-10-01T08:00:00Z,28.4330,-82.6670,0.606,1111122 
COMPS,ioos:station:USF.COMPS:ARP:1,2011-10-01T08:06:00Z,28.4330,-82.6670,0.584,1111122 
COMPS,ioos:station:USF.COMPS:ARP:1,2011-10-01T08:12:00Z,28.4330,-82.6670,0.559,1111122 
COMPS,ioos:station:USF.COMPS:ARP:1,2011-10-01T08:18:00Z,28.4330,-82.6670,0.538,1111122 
COMPS,ioos:station:USF.COMPS:ARP:1,2011-10-01T08:24:00Z,28.4330,-82.6670,0.517,1111122 
COMPS,ioos:station:USF.COMPS:ARP:1,2011-10-01T08:30:00Z,28.4330,-82.6670,0.497,1111122 
COMPS,ioos:station:USF.COMPS:ARP:1,2011-10-01T08:36:00Z,28.4330,-82.6670,0.478,1111122 
COMPS,ioos:station:USF.COMPS:ARP:1,2011-10-01T08:42:00Z,28.4330,-82.6670,0.46,1111122 
COMPS,ioos:station:USF.COMPS:ARP:1,2011-10-01T08:48:00Z,28.4330,-82.6670,0.444,1111122 
COMPS,ioos:station:USF.COMPS:ARP:1,2011-10-01T08:54:00Z,28.4330,-82.6670,0.423,1111122 
COMPS,ioos:station:USF.COMPS:ARP:1,2011-10-01T09:00:00Z,28.4330,-82.6670,0.403,1111122 
COMPS,ioos:station:USF.COMPS:ARP:1,2011-10-01T09:06:00Z,28.4330,-82.6670,0.385,1111122 
COMPS,ioos:station:USF.COMPS:ARP:1,2011-10-01T09:12:00Z,28.4330,-82.6670,0.367,1111122 
COMPS,ioos:station:USF.COMPS:ARP:1,2011-10-01T09:18:00Z,28.4330,-82.6670,0.349,1111122 
COMPS,ioos:station:USF.COMPS:ARP:1,2011-10-01T09:24:00Z,28.4330,-82.6670,0.331,1111122 
COMPS,ioos:station:USF.COMPS:ARP:1,2011-10-01T09:30:00Z,28.4330,-82.6670,0.312,1111122 
COMPS,ioos:station:USF.COMPS:ARP:1,2011-10-01T09:36:00Z,28.4330,-82.6670,0.293,1111122 
COMPS,ioos:station:USF.COMPS:ARP:1,2011-10-01T09:42:00Z,28.4330,-82.6670,0.274,1111122 
COMPS,ioos:station:USF.COMPS:ARP:1,2011-10-01T09:48:00Z,28.4330,-82.6670,0.254,1111122 
COMPS,ioos:station:USF.COMPS:ARP:1,2011-10-01T09:54:00Z,28.4330,-82.6670,0.235,1111122 
COMPS,ioos:station:USF.COMPS:ARP:1,2011-10-01T10:00:00Z,28.4330,-82.6670,0.217,1111122 
COMPS,ioos:station:USF.COMPS:ARP:1,2011-10-01T10:06:00Z,28.4330,-82.6670,0.198,1111122 
COMPS,ioos:station:USF.COMPS:ARP:1,2011-10-01T10:12:00Z,28.4330,-82.6670,0.179,1111122 
COMPS,ioos:station:USF.COMPS:ARP:1,2011-10-01T10:18:00Z,28.4330,-82.6670,0.16,1111122 
COMPS,ioos:station:USF.COMPS:ARP:1,2011-10-01T10:24:00Z,28.4330,-82.6670,0.14,1111122 
COMPS,ioos:station:USF.COMPS:ARP:1,2011-10-01T10:30:00Z,28.4330,-82.6670,0.12,1111122 
COMPS,ioos:station:USF.COMPS:ARP:1,2011-10-01T10:36:00Z,28.4330,-82.6670,0.101,1111122 
COMPS,ioos:station:USF.COMPS:ARP:1,2011-10-01T10:42:00Z,28.4330,-82.6670,0.081,1111122 
COMPS,ioos:station:USF.COMPS:ARP:1,2011-10-01T10:48:00Z,28.4330,-82.6670,0.06,1111122 
COMPS,ioos:station:USF.COMPS:ARP:1,2011-10-01T10:54:00Z,28.4330,-82.6670,0.04,1111122 
COMPS,ioos:station:USF.COMPS:ARP:1,2011-10-01T11:00:00Z,28.4330,-82.6670,0.02,1111122 
COMPS,ioos:station:USF.COMPS:ARP:1,2011-10-01T11:06:00Z,28.4330,-82.6670,-0.001,1111122 
COMPS,ioos:station:USF.COMPS:ARP:1,2011-10-01T11:12:00Z,28.4330,-82.6670,-0.02,1111122 
COMPS,ioos:station:USF.COMPS:ARP:1,2011-10-01T11:18:00Z,28.4330,-82.6670,-0.039,1111122 
COMPS,ioos:station:USF.COMPS:ARP:1,2011-10-01T11:24:00Z,28.4330,-82.6670,-0.058,1111122 
COMPS,ioos:station:USF.COMPS:ARP:1,2011-10-01T11:30:00Z,28.4330,-82.6670,-0.076,1111122 
COMPS,ioos:station:USF.COMPS:ARP:1,2011-10-01T11:36:00Z,28.4330,-82.6670,-0.093,1111122 
COMPS,ioos:station:USF.COMPS:ARP:1,2011-10-01T11:42:00Z,28.4330,-82.6670,-0.11,1111122 
COMPS,ioos:station:USF.COMPS:ARP:1,2011-10-01T11:48:00Z,28.4330,-82.6670,-0.126,1111122 
COMPS,ioos:station:USF.COMPS:ARP:1,2011-10-01T11:54:00Z,28.4330,-82.6670,-0.143,1111122 
COMPS,ioos:station:USF.COMPS:ARP:1,2011-10-01T12:00:00Z,28.4330,-82.6670,-0.157,1111122 
COMPS,ioos:station:USF.COMPS:ARP:1,2011-10-01T12:06:00Z,28.4330,-82.6670,-0.17,1111122 
COMPS,ioos:station:USF.COMPS:ARP:1,2011-10-01T12:12:00Z,28.4330,-82.6670,-0.181,1111122 
COMPS,ioos:station:USF.COMPS:ARP:1,2011-10-01T12:18:00Z,28.4330,-82.6670,-0.193,1111122 
COMPS,ioos:station:USF.COMPS:ARP:1,2011-10-01T12:24:00Z,28.4330,-82.6670,-0.205,1111122 
COMPS,ioos:station:USF.COMPS:ARP:1,2011-10-01T12:30:00Z,28.4330,-82.6670,-0.217,1111122 
COMPS,ioos:station:USF.COMPS:ARP:1,2011-10-01T12:36:00Z,28.4330,-82.6670,-0.229,1111122 
COMPS,ioos:station:USF.COMPS:ARP:1,2011-10-01T12:42:00Z,28.4330,-82.6670,-0.241,1111122 
COMPS,ioos:station:USF.COMPS:ARP:1,2011-10-01T12:48:00Z,28.4330,-82.6670,-0.253,1111122 
COMPS,ioos:station:USF.COMPS:ARP:1,2011-10-01T12:54:00Z,28.4330,-82.6670,-0.265,1111122 
COMPS,ioos:station:USF.COMPS:ARP:1,2011-10-01T13:00:00Z,28.4330,-82.6670,-0.276,1111122 
COMPS,ioos:station:USF.COMPS:ARP:1,2011-10-01T13:06:00Z,28.4330,-82.6670,-0.285,1111122 
COMPS,ioos:station:USF.COMPS:ARP:1,2011-10-01T13:12:00Z,28.4330,-82.6670,-0.298,1111122 
COMPS,ioos:station:USF.COMPS:ARP:1,2011-10-01T13:18:00Z,28.4330,-82.6670,-0.309,1111122 
COMPS,ioos:station:USF.COMPS:ARP:1,2011-10-01T13:24:00Z,28.4330,-82.6670,-0.32,1111122 
COMPS,ioos:station:USF.COMPS:ARP:1,2011-10-01T13:30:00Z,28.4330,-82.6670,-0.329,1111122 
COMPS,ioos:station:USF.COMPS:ARP:1,2011-10-01T13:36:00Z,28.4330,-82.6670,-0.34,1111122 
COMPS,ioos:station:USF.COMPS:ARP:1,2011-10-01T13:42:00Z,28.4330,-82.6670,-0.35,1111122 
COMPS,ioos:station:USF.COMPS:ARP:1,2011-10-01T13:48:00Z,28.4330,-82.6670,-0.36,1111122 
COMPS,ioos:station:USF.COMPS:ARP:1,2011-10-01T13:54:00Z,28.4330,-82.6670,-0.369,1111122 
COMPS,ioos:station:USF.COMPS:ARP:1,2011-10-01T14:00:00Z,28.4330,-82.6670,-0.376,1111122 
COMPS,ioos:station:USF.COMPS:ARP:1,2011-10-01T14:06:00Z,28.4330,-82.6670,-0.384,1111122 
COMPS,ioos:station:USF.COMPS:ARP:1,2011-10-01T14:12:00Z,28.4330,-82.6670,-0.394,1111122 
COMPS,ioos:station:USF.COMPS:ARP:1,2011-10-01T14:18:00Z,28.4330,-82.6670,-0.402,1111122 
COMPS,ioos:station:USF.COMPS:ARP:1,2011-10-01T14:24:00Z,28.4330,-82.6670,-0.41,1111122 
COMPS,ioos:station:USF.COMPS:ARP:1,2011-10-01T14:30:00Z,28.4330,-82.6670,-0.418,1111122 
COMPS,ioos:station:USF.COMPS:ARP:1,2011-10-01T14:36:00Z,28.4330,-82.6670,-0.424,1111122 
COMPS,ioos:station:USF.COMPS:ARP:1,2011-10-01T14:42:00Z,28.4330,-82.6670,-0.433,1111122 
COMPS,ioos:station:USF.COMPS:ARP:1,2011-10-01T14:48:00Z,28.4330,-82.6670,-0.445,1111122 
COMPS,ioos:station:USF.COMPS:ARP:1,2011-10-01T14:54:00Z,28.4330,-82.6670,-0.453,1111122 
COMPS,ioos:station:USF.COMPS:ARP:1,2011-10-01T15:00:00Z,28.4330,-82.6670,-0.46,1111122 
COMPS,ioos:station:USF.COMPS:ARP:1,2011-10-01T15:06:00Z,28.4330,-82.6670,-0.466,1111122 
COMPS,ioos:station:USF.COMPS:ARP:1,2011-10-01T15:12:00Z,28.4330,-82.6670,-0.472,1111122 
COMPS,ioos:station:USF.COMPS:ARP:1,2011-10-01T15:18:00Z,28.4330,-82.6670,-0.48,1111122 
COMPS,ioos:station:USF.COMPS:ARP:1,2011-10-01T15:24:00Z,28.4330,-82.6670,-0.485,1111122 
COMPS,ioos:station:USF.COMPS:ARP:1,2011-10-01T15:30:00Z,28.4330,-82.6670,-0.491,1111122 
COMPS,ioos:station:USF.COMPS:ARP:1,2011-10-01T15:36:00Z,28.4330,-82.6670,-0.496,1111122 
COMPS,ioos:station:USF.COMPS:ARP:1,2011-10-01T15:42:00Z,28.4330,-82.6670,-0.5,1111122 
COMPS,ioos:station:USF.COMPS:ARP:1,2011-10-01T15:48:00Z,28.4330,-82.6670,-0.503,1111122 
COMPS,ioos:station:USF.COMPS:ARP:1,2011-10-01T15:54:00Z,28.4330,-82.6670,-0.507,1111122 
COMPS,ioos:station:USF.COMPS:ARP:1,2011-10-01T16:00:00Z,28.4330,-82.6670,-0.511,1111122 
COMPS,ioos:station:USF.COMPS:ARP:1,2011-10-01T16:06:00Z,28.4330,-82.6670,-0.515,1111122 
COMPS,ioos:station:USF.COMPS:ARP:1,2011-10-01T16:12:00Z,28.4330,-82.6670,-0.519,1111122 
COMPS,ioos:station:USF.COMPS:ARP:1,2011-10-01T16:18:00Z,28.4330,-82.6670,-0.524,1111122 
COMPS,ioos:station:USF.COMPS:ARP:1,2011-10-01T16:24:00Z,28.4330,-82.6670,-0.528,1111122 
COMPS,ioos:station:USF.COMPS:ARP:1,2011-10-01T16:30:00Z,28.4330,-82.6670,-0.531,1111122 
COMPS,ioos:station:USF.COMPS:ARP:1,2011-10-01T16:36:00Z,28.4330,-82.6670,-0.535,1111122 
COMPS,ioos:station:USF.COMPS:ARP:1,2011-10-01T16:42:00Z,28.4330,-82.6670,-0.54,1111122 
COMPS,ioos:station:USF.COMPS:ARP:1,2011-10-01T16:48:00Z,28.4330,-82.6670,-0.543,1111122 
COMPS,ioos:station:USF.COMPS:ARP:1,2011-10-01T16:54:00Z,28.4330,-82.6670,-0.548,1111122 
COMPS,ioos:station:USF.COMPS:ARP:1,2011-10-01T17:00:00Z,28.4330,-82.6670,-0.55,1111122 
COMPS,ioos:station:USF.COMPS:ARP:1,2011-10-01T17:06:00Z,28.4330,-82.6670,-0.55,1111122 
COMPS,ioos:station:USF.COMPS:ARP:1,2011-10-01T17:12:00Z,28.4330,-82.6670,-0.55,1111122 
COMPS,ioos:station:USF.COMPS:ARP:1,2011-10-01T17:18:00Z,28.4330,-82.6670,-0.553,1111122 
COMPS,ioos:station:USF.COMPS:ARP:1,2011-10-01T17:24:00Z,28.4330,-82.6670,-0.555,1111122 
COMPS,ioos:station:USF.COMPS:ARP:1,2011-10-01T17:30:00Z,28.4330,-82.6670,-0.555,1111122 
COMPS,ioos:station:USF.COMPS:ARP:1,2011-10-01T17:36:00Z,28.4330,-82.6670,-0.554,1111122 
COMPS,ioos:station:USF.COMPS:ARP:1,2011-10-01T17:42:00Z,28.4330,-82.6670,-0.551,1111122 
COMPS,ioos:station:USF.COMPS:ARP:1,2011-10-01T17:48:00Z,28.4330,-82.6670,-0.549,1111122 
COMPS,ioos:station:USF.COMPS:ARP:1,2011-10-01T17:54:00Z,28.4330,-82.6670,-0.544,1111122 
COMPS,ioos:station:USF.COMPS:ARP:1,2011-10-01T18:00:00Z,28.4330,-82.6670,-0.537,1111122 
COMPS,ioos:station:USF.COMPS:ARP:1,2011-10-01T18:06:00Z,28.4330,-82.6670,-0.529,1111122 
COMPS,ioos:station:USF.COMPS:ARP:1,2011-10-01T18:12:00Z,28.4330,-82.6670,-0.519,1111122 
COMPS,ioos:station:USF.COMPS:ARP:1,2011-10-01T18:18:00Z,28.4330,-82.6670,-0.507,1111122 
COMPS,ioos:station:USF.COMPS:ARP:1,2011-10-01T18:24:00Z,28.4330,-82.6670,-0.494,1111122 
COMPS,ioos:station:USF.COMPS:ARP:1,2011-10-01T18:30:00Z,28.4330,-82.6670,-0.479,1111122 
COMPS,ioos:station:USF.COMPS:ARP:1,2011-10-01T18:36:00Z,28.4330,-82.6670,-0.463,1111122 
COMPS,ioos:station:USF.COMPS:ARP:1,2011-10-01T18:42:00Z,28.4330,-82.6670,-0.447,1111122 
COMPS,ioos:station:USF.COMPS:ARP:1,2011-10-01T18:48:00Z,28.4330,-82.6670,-0.429,1111122 
COMPS,ioos:station:USF.COMPS:ARP:1,2011-10-01T18:54:00Z,28.4330,-82.6670,-0.407,1111122 
COMPS,ioos:station:USF.COMPS:ARP:1,2011-10-01T19:00:00Z,28.4330,-82.6670,-0.384,1111122 
COMPS,ioos:station:USF.COMPS:ARP:1,2011-10-01T19:06:00Z,28.4330,-82.6670,-0.358,1111122 
COMPS,ioos:station:USF.COMPS:ARP:1,2011-10-01T19:12:00Z,28.4330,-82.6670,-0.332,1111122 
COMPS,ioos:station:USF.COMPS:ARP:1,2011-10-01T19:18:00Z,28.4330,-82.6670,-0.302,1111122 
COMPS,ioos:station:USF.COMPS:ARP:1,2011-10-01T19:24:00Z,28.4330,-82.6670,-0.272,1111122 
COMPS,ioos:station:USF.COMPS:ARP:1,2011-10-01T19:30:00Z,28.4330,-82.6670,-0.241,1111122 
COMPS,ioos:station:USF.COMPS:ARP:1,2011-10-01T19:36:00Z,28.4330,-82.6670,-0.211,1111122 
COMPS,ioos:station:USF.COMPS:ARP:1,2011-10-01T19:42:00Z,28.4330,-82.6670,-0.178,1111122 
COMPS,ioos:station:USF.COMPS:ARP:1,2011-10-01T19:48:00Z,28.4330,-82.6670,-0.147,1111122 
COMPS,ioos:station:USF.COMPS:ARP:1,2011-10-01T19:54:00Z,28.4330,-82.6670,-0.116,1111122 
COMPS,ioos:station:USF.COMPS:ARP:1,2011-10-01T20:00:00Z,28.4330,-82.6670,-0.086,1111122 
COMPS,ioos:station:USF.COMPS:ARP:1,2011-10-01T20:06:00Z,28.4330,-82.6670,-0.058,1111122 
COMPS,ioos:station:USF.COMPS:ARP:1,2011-10-01T20:12:00Z,28.4330,-82.6670,-0.033,1111122 
COMPS,ioos:station:USF.COMPS:ARP:1,2011-10-01T20:18:00Z,28.4330,-82.6670,-0.009,1111122 
COMPS,ioos:station:USF.COMPS:ARP:1,2011-10-01T20:24:00Z,28.4330,-82.6670,0.013,1111122 
COMPS,ioos:station:USF.COMPS:ARP:1,2011-10-01T20:30:00Z,28.4330,-82.6670,0.035,1111122 
COMPS,ioos:station:USF.COMPS:ARP:1,2011-10-01T20:36:00Z,28.4330,-82.6670,0.053,1111122 
COMPS,ioos:station:USF.COMPS:ARP:1,2011-10-01T20:42:00Z,28.4330,-82.6670,0.07,1111122 
COMPS,ioos:station:USF.COMPS:ARP:1,2011-10-01T20:48:00Z,28.4330,-82.6670,0.087,1111122 
COMPS,ioos:station:USF.COMPS:ARP:1,2011-10-01T20:54:00Z,28.4330,-82.6670,0.101,1111122 
COMPS,ioos:station:USF.COMPS:ARP:1,2011-10-01T21:00:00Z,28.4330,-82.6670,0.113,1111122 
COMPS,ioos:station:USF.COMPS:ARP:1,2011-10-01T21:06:00Z,28.4330,-82.6670,0.125,1111122 
COMPS,ioos:station:USF.COMPS:ARP:1,2011-10-01T21:12:00Z,28.4330,-82.6670,0.134,1111122 
COMPS,ioos:station:USF.COMPS:ARP:1,2011-10-01T21:18:00Z,28.4330,-82.6670,0.143,1111122 
COMPS,ioos:station:USF.COMPS:ARP:1,2011-10-01T21:24:00Z,28.4330,-82.6670,0.149,1111122 
COMPS,ioos:station:USF.COMPS:ARP:1,2011-10-01T21:30:00Z,28.4330,-82.6670,0.155,1111122 
COMPS,ioos:station:USF.COMPS:ARP:1,2011-10-01T21:36:00Z,28.4330,-82.6670,0.163,1111122 
COMPS,ioos:station:USF.COMPS:ARP:1,2011-10-01T21:42:00Z,28.4330,-82.6670,0.166,1111122 
COMPS,ioos:station:USF.COMPS:ARP:1,2011-10-01T21:48:00Z,28.4330,-82.6670,0.168,1111122 
COMPS,ioos:station:USF.COMPS:ARP:1,2011-10-01T21:54:00Z,28.4330,-82.6670,0.169,1111122 
COMPS,ioos:station:USF.COMPS:ARP:1,2011-10-01T22:00:00Z,28.4330,-82.6670,0.171,1111122 
COMPS,ioos:station:USF.COMPS:ARP:1,2011-10-01T22:06:00Z,28.4330,-82.6670,0.171,1111122 
COMPS,ioos:station:USF.COMPS:ARP:1,2011-10-01T22:12:00Z,28.4330,-82.6670,0.167,1111122 
COMPS,ioos:station:USF.COMPS:ARP:1,2011-10-01T22:18:00Z,28.4330,-82.6670,0.166,1111122 
COMPS,ioos:station:USF.COMPS:ARP:1,2011-10-01T22:24:00Z,28.4330,-82.6670,0.16,1111122 
COMPS,ioos:station:USF.COMPS:ARP:1,2011-10-01T22:30:00Z,28.4330,-82.6670,0.151,1111122 
COMPS,ioos:station:USF.COMPS:ARP:1,2011-10-01T22:36:00Z,28.4330,-82.6670,0.146,1111122 
COMPS,ioos:station:USF.COMPS:ARP:1,2011-10-01T22:42:00Z,28.4330,-82.6670,0.14,1111122 
COMPS,ioos:station:USF.COMPS:ARP:1,2011-10-01T22:48:00Z,28.4330,-82.6670,0.131,1111122 
COMPS,ioos:station:USF.COMPS:ARP:1,2011-10-01T22:54:00Z,28.4330,-82.6670,0.125,1111122 
COMPS,ioos:station:USF.COMPS:ARP:1,2011-10-01T23:00:00Z,28.4330,-82.6670,0.12,1111122 
COMPS,ioos:station:USF.COMPS:ARP:1,2011-10-01T23:06:00Z,28.4330,-82.6670,0.118,1111122 
COMPS,ioos:station:USF.COMPS:ARP:1,2011-10-01T23:12:00Z,28.4330,-82.6670,0.112,1111122 
COMPS,ioos:station:USF.COMPS:ARP:1,2011-10-01T23:18:00Z,28.4330,-82.6670,0.107,1111122 
COMPS,ioos:station:USF.COMPS:ARP:1,2011-10-01T23:24:00Z,28.4330,-82.6670,0.102,1111122 
COMPS,ioos:station:USF.COMPS:ARP:1,2011-10-01T23:30:00Z,28.4330,-82.6670,0.096,1111122 
COMPS,ioos:station:USF.COMPS:ARP:1,2011-10-01T23:36:00Z,28.4330,-82.6670,0.087,1111122 
COMPS,ioos:station:USF.COMPS:ARP:1,2011-10-01T23:42:00Z,28.4330,-82.6670,0.082,1111122 
COMPS,ioos:station:USF.COMPS:ARP:1,2011-10-01T23:48:00Z,28.4330,-82.6670,0.071,1111122 
COMPS,ioos:station:USF.COMPS:ARP:1,2011-10-01T23:54:00Z,28.4330,-82.6670,0.062,1111122 
COMPS,ioos:station:USF.COMPS:ARP:1,2011-10-02T00:00:00Z,28.4330,-82.6670,0.052,1111122 
COMPS,ioos:station:USF.COMPS:ARP:1,2011-10-02T00:06:00Z,28.4330,-82.6670,0.041,1111122 
COMPS,ioos:station:USF.COMPS:ARP:1,2011-10-02T00:12:00Z,28.4330,-82.6670,0.031,1111122 
COMPS,ioos:station:USF.COMPS:ARP:1,2011-10-02T00:18:00Z,28.4330,-82.6670,0.019,1111122 
COMPS,ioos:station:USF.COMPS:ARP:1,2011-10-02T00:24:00Z,28.4330,-82.6670,0.007,1111122 
COMPS,ioos:station:USF.COMPS:ARP:1,2011-10-02T00:30:00Z,28.4330,-82.6670,-0.003,1111122 
COMPS,ioos:station:USF.COMPS:ARP:1,2011-10-02T00:36:00Z,28.4330,-82.6670,-0.015,1111122 
COMPS,ioos:station:USF.COMPS:ARP:1,2011-10-02T00:42:00Z,28.4330,-82.6670,-0.027,1111122 
COMPS,ioos:station:USF.COMPS:ARP:1,2011-10-02T00:48:00Z,28.4330,-82.6670,-0.042,1111122 
COMPS,ioos:station:USF.COMPS:ARP:1,2011-10-02T00:54:00Z,28.4330,-82.6670,-0.055,1111122 
COMPS,ioos:station:USF.COMPS:ARP:1,2011-10-02T01:00:00Z,28.4330,-82.6670,-0.07,1111122 
COMPS,ioos:station:USF.COMPS:ARP:1,2011-10-02T01:06:00Z,28.4330,-82.6670,-0.082,1111122 
COMPS,ioos:station:USF.COMPS:ARP:1,2011-10-02T01:12:00Z,28.4330,-82.6670,-0.094,1111122 
COMPS,ioos:station:USF.COMPS:ARP:1,2011-10-02T01:18:00Z,28.4330,-82.6670,-0.106,1111122 
COMPS,ioos:station:USF.COMPS:ARP:1,2011-10-02T01:24:00Z,28.4330,-82.6670,-0.117,1111122 
COMPS,ioos:station:USF.COMPS:ARP:1,2011-10-02T01:30:00Z,28.4330,-82.6670,-0.126,1111122 
COMPS,ioos:station:USF.COMPS:ARP:1,2011-10-02T01:36:00Z,28.4330,-82.6670,-0.135,1111122 
COMPS,ioos:station:USF.COMPS:ARP:1,2011-10-02T01:42:00Z,28.4330,-82.6670,-0.142,1111122 
COMPS,ioos:station:USF.COMPS:ARP:1,2011-10-02T01:48:00Z,28.4330,-82.6670,-0.15,1111122 
COMPS,ioos:station:USF.COMPS:ARP:1,2011-10-02T01:54:00Z,28.4330,-82.6670,-0.157,1111122 
COMPS,ioos:station:USF.COMPS:ARP:1,2011-10-02T02:00:00Z,28.4330,-82.6670,-0.163,1111122 
COMPS,ioos:station:USF.COMPS:ARP:1,2011-10-02T02:06:00Z,28.4330,-82.6670,-0.17,1111122 
COMPS,ioos:station:USF.COMPS:ARP:1,2011-10-02T02:12:00Z,28.4330,-82.6670,-0.177,1111122 
COMPS,ioos:station:USF.COMPS:ARP:1,2011-10-02T02:18:00Z,28.4330,-82.6670,-0.183,1111122 
COMPS,ioos:station:USF.COMPS:ARP:1,2011-10-02T02:24:00Z,28.4330,-82.6670,-0.19,1111122 
COMPS,ioos:station:USF.COMPS:ARP:1,2011-10-02T02:30:00Z,28.4330,-82.6670,-0.196,1111122 
COMPS,ioos:station:USF.COMPS:ARP:1,2011-10-02T02:36:00Z,28.4330,-82.6670,-0.202,1111122 
COMPS,ioos:station:USF.COMPS:ARP:1,2011-10-02T02:42:00Z,28.4330,-82.6670,-0.208,1111122 
COMPS,ioos:station:USF.COMPS:ARP:1,2011-10-02T02:48:00Z,28.4330,-82.6670,-0.214,1111122 
COMPS,ioos:station:USF.COMPS:ARP:1,2011-10-02T02:54:00Z,28.4330,-82.6670,-0.221,1111122 